[[[{"header":{"parameterUnit":"kt","parameterCategory":2,"dx":1,"dy":1,"la1":30.253999710083008,"la2":30.299108505249023,"lo1":-89.0895004272461,"lo2":-89.04439544677734,"nx":28,"ny":28,"refTime":"2022-10-25T21:00:00:Z","depth":"0","parameterNumber":2,"parameterNumberName":"U-component_of_CURRENTS"},"data":[-0.1475,-0.1415,-0.1411,-0.1299,-0.1283,-0.1176,-0.114,-0.1074,-0.1023,-0.0839,-0.0699,-0.0634,-0.0482,-0.0296,-0.0077,-0.0031,-0.0112,-0.0065,-0.0197,-0.0292,-0.0344,-0.0394,-0.0334,0.0092,0.0092,-0.0008,-0.0009,-0.001,-0.1538,-0.1525,-0.1519,-0.1504,-0.1464,-0.1518,-0.1518,-0.1455,-0.1382,-0.1364,-0.1294,-0.1039,-0.0766,-0.0631,-0.0361,-0.0262,-0.0327,-0.0275,-0.0408,-0.0424,-0.0534,-0.0462,-0.0056,-0.0056,-0.0056,-0.0056,-0.0056,-0.0056,-0.1645,-0.1636,-0.1641,-0.1641,-0.1659,-0.1652,-0.162,-0.1658,-0.1653,-0.1627,-0.1685,-0.1548,-0.1355,-0.1085,-0.1002,-0.0768,-0.0983,-0.0726,-0.0823,-0.0938,-0.0851,-0.0949,-0.0696,-0.0698,-0.0701,-0.0702,-0.0704,0,-0.1717,-0.1735,-0.1748,-0.1757,-0.1769,-0.1799,-0.1826,-0.1843,-0.1933,-0.1949,-0.1934,-0.1893,-0.1766,-0.1548,-0.1392,-0.1333,-0.1424,-0.1364,-0.135,-0.1146,-0.1179,-0.1148,-0.1416,-0.1232,-0.1237,-0.1242,-0.1245,-0.1247,-0.1785,-0.179,-0.1847,-0.1851,-0.1871,-0.1903,-0.1922,-0.2013,-0.2033,-0.2114,-0.2109,-0.21,-0.2045,-0.1935,-0.1829,-0.1721,-0.1787,-0.1503,-0.1507,-0.1423,-0.1487,-0.1585,-0.1566,-0.1307,-0.1299,-0.1293,-0.1288,0,-0.1809,-0.1854,-0.1882,-0.1945,-0.1962,-0.1975,-0.2042,-0.2063,-0.2135,-0.2163,-0.2177,-0.2245,-0.2204,-0.2213,-0.2196,-0.2136,-0.1999,-0.1999,-0.181,-0.1765,-0.1506,-0.1572,-0.1492,-0.1448,-0.1769,-0.1764,-0.176,0,-0.1866,-0.1883,-0.1947,-0.1955,-0.1987,-0.2048,-0.2082,-0.2132,-0.2192,-0.2216,-0.2284,-0.2292,-0.2343,-0.2325,-0.2312,-0.2188,-0.2286,-0.2107,-0.2087,-0.1955,-0.1927,-0.1905,-0.1968,-0.2309,-0.2309,-0.231,-0.231,0,-0.1889,-0.1949,-0.1973,-0.1993,-0.2071,-0.209,-0.2124,-0.219,-0.2221,-0.2278,-0.2298,-0.2343,-0.2347,-0.2348,-0.2322,-0.2345,-0.2297,-0.2338,-0.2138,-0.2125,-0.2006,-0.198,-0.1814,-0.2311,-0.2311,-0.2311,-0.2312,0,-0.1939,-0.1965,-0.1997,-0.2066,-0.208,-0.2104,-0.2165,-0.22,-0.226,-0.2283,-0.2315,-0.2336,-0.2363,-0.2351,-0.2358,-0.2367,-0.234,-0.2334,-0.2332,-0.2205,-0.2197,-0.1977,-0.1836,-0.1783,-0.2296,-0.2296,-0.2296,0,-0.1953,-0.1988,-0.2028,-0.206,-0.2083,-0.213,-0.2168,-0.2211,-0.2238,-0.2271,-0.2298,-0.2327,-0.2329,-0.2341,-0.2349,-0.2364,-0.2347,-0.2364,-0.2387,-0.2387,-0.2219,-0.2121,-0.1945,-0.1856,-0.23,-0.23,-0.2299,0,-0.1967,-0.2029,-0.2029,-0.2064,-0.2112,-0.2121,-0.2154,-0.2203,-0.2237,-0.2244,-0.2285,-0.2311,-0.2317,-0.2362,-0.2388,-0.2401,-0.235,-0.2412,-0.2415,-0.2375,-0.2335,-0.2149,-0.2128,-0.2368,-0.2368,-0.2368,-0.2302,0,-0.2065,-0.2069,-0.2053,-0.2113,-0.2121,-0.2118,-0.2177,-0.2179,-0.2204,-0.2246,-0.2263,-0.2292,-0.2355,-0.2353,-0.2391,-0.2406,-0.2402,-0.2431,-0.2489,-0.2454,-0.2427,-0.2424,-0.2484,-0.2485,-0.2487,-0.2488,0,0,-0.2095,-0.2104,-0.2116,-0.2135,-0.2155,-0.2188,-0.2207,-0.2227,-0.2266,-0.2287,-0.2282,-0.2357,-0.2389,-0.2451,-0.2438,-0.2448,-0.2447,-0.25,-0.247,-0.2468,-0.2466,-0.2439,-0.2434,-0.2491,-0.2492,-0.2492,-0.2493,0,-0.2152,-0.2134,-0.2128,-0.2149,-0.218,-0.2217,-0.221,-0.2252,-0.2267,-0.2289,-0.2338,-0.2348,-0.2409,-0.2458,-0.2498,-0.2465,-0.2506,-0.2473,-0.2475,-0.2482,-0.2478,-0.2474,-0.2446,-0.2441,-0.2496,-0.2496,-0.2496,0,-0.2221,-0.2245,-0.2234,-0.2247,-0.2268,-0.2292,-0.2325,-0.2313,-0.2342,-0.24,-0.242,-0.2435,-0.2508,-0.2523,-0.2533,-0.2571,-0.2571,-0.2584,-0.2577,-0.2604,-0.2616,-0.261,-0.2605,-0.267,-0.267,-0.267,0,0,-0.2272,-0.2257,-0.2308,-0.2267,-0.2275,-0.2326,-0.2326,-0.2354,-0.2385,-0.239,-0.2432,-0.2483,-0.2517,-0.2546,-0.2568,-0.2591,-0.2614,-0.2601,-0.2593,-0.2586,-0.2607,-0.2618,-0.2613,-0.267,-0.267,-0.2671,0,0,-0.23,-0.2349,-0.2378,-0.2334,-0.2355,-0.2405,-0.2376,-0.2411,-0.2424,-0.2429,-0.2501,-0.2514,-0.2512,-0.2566,-0.2565,-0.2604,-0.2644,-0.2644,-0.2567,-0.2558,-0.255,-0.2567,-0.2635,0,0,0,0,0,-0.2404,-0.2348,-0.2374,-0.2375,-0.2395,-0.2398,-0.2401,-0.243,-0.2458,-0.2429,-0.2475,-0.2521,-0.2584,-0.2585,-0.2595,-0.2591,-0.2678,-0.2677,-0.2676,-0.2579,-0.2569,-0.256,0,0,0,0,0,0,-0.2405,-0.2405,-0.2376,-0.2424,-0.2429,-0.24,-0.2458,-0.2465,-0.2461,-0.2464,-0.2512,-0.2523,-0.2572,-0.2584,-0.2592,-0.2587,-0.2633,-0.2678,-0.2676,-0.2675,-0.2575,-0.2567,-0.256,0,0,0,0,0,-0.2406,-0.2406,-0.2425,-0.2425,-0.243,-0.2465,-0.2459,-0.2465,-0.2455,-0.2524,-0.2534,-0.2474,-0.2571,-0.2581,-0.2589,-0.2582,-0.2627,-0.263,-0.2677,-0.2676,-0.2675,-0.2571,0,0,0,0,0,0,-0.2406,-0.2414,-0.2427,-0.243,-0.2431,-0.2466,-0.247,-0.2464,-0.2516,-0.2525,-0.2492,-0.2494,-0.257,-0.2578,-0.2585,-0.2577,-0.2623,-0.2626,-0.2628,-0.2676,-0.2675,-0.2675,0,0,0,0,0,0,-0.2414,-0.2416,-0.2428,-0.2434,-0.2438,-0.2466,-0.247,-0.2498,-0.2518,-0.2481,-0.2485,-0.2492,-0.2569,-0.2576,-0.2582,-0.2624,-0.2619,-0.2622,-0.2624,-0.2625,-0.2676,-0.2675,0,0,0,0,0,0,-0.2416,-0.2418,-0.2433,-0.2436,-0.244,-0.2478,-0.2493,-0.2516,-0.2504,-0.2479,-0.2506,-0.2507,-0.2567,-0.2573,-0.2579,-0.2618,-0.2622,-0.2619,-0.2621,-0.2623,-0.2624,0,0,0,0,0,0,0,-0.2417,-0.2393,-0.2409,-0.2438,-0.2441,-0.2462,-0.2462,-0.2463,-0.2504,-0.2505,-0.2506,-0.2506,-0.2603,-0.2606,-0.2609,-0.2613,0,0,-0.2619,-0.2621,0,0,0,0,0,0,0,0,-0.2394,-0.2393,-0.2409,-0.2409,-0.241,-0.2462,-0.2462,-0.2463,-0.2504,-0.2505,-0.2506,-0.2506,-0.2604,-0.2606,-0.2609,0,0,0,0,0,0,0,0,0,0,0,0,0,0,0,-0.2409,-0.2409,0,-0.2462,-0.2462,-0.2463,-0.2504,-0.2505,-0.2505,-0.2506,-0.2605,-0.2607,-0.2609,0,0,0,0,0,0,0,0,0,0,0,0,0,0,0,0,0,0,0,0,0,0,0,0,0,0,0,0,0,0,0,0,0,0,0,0,0,0,0,0,0,0,0,0,0,0,0,0,0,0,0,0,0,0,0,0,0,0,0,0,0,0,0,0,0,0,0,0,0]}],[{"header":{"parameterUnit":"kt","parameterCategory":2,"dx":1,"dy":1,"la1":30.253999710083008,"la2":30.299108505249023,"lo1":-89.0895004272461,"lo2":-89.04439544677734,"nx":28,"ny":28,"refTime":"2022-10-25T21:00:00:Z","depth":"0","parameterNumber":3,"parameterNumberName":"V-component_of_CURRENTS"},"data":[-0.1057,-0.1121,-0.1165,-0.1269,-0.1321,-0.137,-0.1382,-0.1327,-0.1216,-0.0923,-0.0639,-0.0428,0.001,0.0439,0.0775,0.0819,0.0974,0.0949,0.1058,0.0826,0.08,0.0775,0.0776,0.1025,0.1025,0.136,0.1363,0.1365,-0.1049,-0.1102,-0.1171,-0.1254,-0.1317,-0.1343,-0.1391,-0.1372,-0.1316,-0.1182,-0.1037,-0.0612,-0.0299,-0.0002,0.0369,0.0531,0.0569,0.0624,0.0651,0.0716,0.0405,0.0394,0.0565,0.0565,0.0565,0.0565,0.0565,0.0565,-0.1037,-0.1081,-0.1132,-0.1201,-0.1264,-0.1329,-0.1355,-0.1358,-0.1347,-0.1248,-0.1155,-0.0929,-0.0608,-0.0212,-0.0077,0.0219,0.021,0.0322,0.0361,0.0371,0.0454,0.0092,0.0226,0.0226,0.0226,0.0226,0.0225,0,-0.1021,-0.1042,-0.1082,-0.1156,-0.1207,-0.1268,-0.1303,-0.1324,-0.1308,-0.1268,-0.1163,-0.1058,-0.0778,-0.0508,-0.0232,-0.0093,0.0085,0.0038,0.0147,0.0219,0.0242,0.0349,-0.0041,0.0062,0.006,0.0059,0.0059,0.0058,-0.0987,-0.1016,-0.1076,-0.1111,-0.1126,-0.1176,-0.1211,-0.1214,-0.1224,-0.1165,-0.1156,-0.1012,-0.0888,-0.0584,-0.0377,-0.0152,-0.0054,0.0002,-0.0015,0.0086,0.0153,0.0168,0.024,0.0045,0.0046,0.0048,0.0049,0,-0.0965,-0.0978,-0.1029,-0.1062,-0.1077,-0.1116,-0.1149,-0.1172,-0.1144,-0.1139,-0.1128,-0.1012,-0.0854,-0.0696,-0.0496,-0.0387,-0.0146,-0.016,-0.0161,-0.0128,0.0063,0.0099,0.027,0.0369,-0.0019,-0.0017,-0.0016,0,-0.0924,-0.0957,-0.0981,-0.1002,-0.1056,-0.1051,-0.1089,-0.1081,-0.1065,-0.1066,-0.099,-0.0954,-0.0804,-0.0688,-0.0562,-0.0381,-0.0394,-0.026,-0.0225,-0.0221,-0.0217,-0.0093,-0.0052,-0.028,-0.0281,-0.0282,-0.0283,0,-0.0883,-0.0914,-0.0955,-0.0965,-0.0985,-0.1001,-0.1009,-0.0991,-0.0997,-0.0953,-0.0943,-0.0861,-0.0809,-0.0701,-0.0551,-0.0559,-0.0389,-0.0382,-0.0262,-0.0258,-0.0206,-0.0199,-0.0056,-0.0284,-0.0285,-0.0285,-0.0285,0,-0.0841,-0.0861,-0.0901,-0.0936,-0.0942,-0.0952,-0.0967,-0.0964,-0.0926,-0.0903,-0.0861,-0.081,-0.0746,-0.0704,-0.0568,-0.0601,-0.0511,-0.0441,-0.0434,-0.0381,-0.0347,-0.0268,-0.0203,-0.0096,-0.0347,-0.0348,-0.0349,0,-0.0812,-0.0844,-0.0838,-0.0871,-0.089,-0.0869,-0.0875,-0.0861,-0.0833,-0.0815,-0.0756,-0.0732,-0.0686,-0.067,-0.0622,-0.0541,-0.0492,-0.0541,-0.0402,-0.0398,-0.0398,-0.0349,-0.0331,-0.0223,-0.0362,-0.0361,-0.036,0,-0.0791,-0.08,-0.0804,-0.0833,-0.0818,-0.081,-0.0805,-0.0796,-0.0807,-0.0749,-0.0753,-0.0693,-0.066,-0.0639,-0.0599,-0.0557,-0.0509,-0.0521,-0.0517,-0.0506,-0.0407,-0.037,-0.0357,-0.0489,-0.0489,-0.0488,-0.037,0,-0.0825,-0.0811,-0.0796,-0.082,-0.0799,-0.0782,-0.0773,-0.0747,-0.0735,-0.0723,-0.0685,-0.0625,-0.0595,-0.0574,-0.0552,-0.0527,-0.0502,-0.0489,-0.0503,-0.0477,-0.0423,-0.0415,-0.0494,-0.0493,-0.0492,-0.0492,0,0,-0.0832,-0.0822,-0.0793,-0.0796,-0.0795,-0.076,-0.0768,-0.0741,-0.0695,-0.0689,-0.0678,-0.0608,-0.0575,-0.0558,-0.0552,-0.0509,-0.0475,-0.0541,-0.0477,-0.0476,-0.0474,-0.0423,-0.0417,-0.0491,-0.049,-0.049,-0.049,0,-0.0868,-0.0815,-0.0813,-0.0798,-0.0777,-0.0767,-0.0756,-0.0725,-0.0719,-0.0675,-0.0675,-0.0635,-0.0573,-0.0569,-0.0557,-0.0502,-0.0498,-0.0489,-0.0514,-0.0473,-0.0472,-0.0472,-0.0422,-0.0416,-0.0488,-0.0488,-0.0488,0,-0.0911,-0.0899,-0.0885,-0.083,-0.0813,-0.0806,-0.0796,-0.0753,-0.0759,-0.0724,-0.0703,-0.0667,-0.063,-0.0595,-0.0572,-0.0573,-0.0504,-0.0525,-0.0526,-0.0541,-0.0498,-0.0497,-0.0495,-0.0519,-0.052,-0.0521,0,0,-0.0947,-0.0927,-0.09,-0.0839,-0.0827,-0.0807,-0.0778,-0.0779,-0.0745,-0.0728,-0.0709,-0.0679,-0.0652,-0.0631,-0.0596,-0.0535,-0.051,-0.0534,-0.0533,-0.0532,-0.0546,-0.0503,-0.0501,-0.0523,-0.0523,-0.0523,0,0,-0.0969,-0.0959,-0.0965,-0.0887,-0.0861,-0.0831,-0.0793,-0.079,-0.0742,-0.0751,-0.0742,-0.0735,-0.0692,-0.0658,-0.069,-0.0629,-0.0627,-0.0619,-0.0679,-0.0676,-0.0674,-0.0711,-0.0736,0,0,0,0,0,-0.103,-0.0964,-0.0969,-0.0955,-0.0878,-0.0826,-0.0815,-0.0808,-0.0823,-0.0793,-0.077,-0.0792,-0.0682,-0.0709,-0.0695,-0.071,-0.0554,-0.0548,-0.0543,-0.0605,-0.0602,-0.06,0,0,0,0,0,0,-0.1025,-0.1009,-0.0971,-0.094,-0.0922,-0.0828,-0.0868,-0.0863,-0.0828,-0.0831,-0.0794,-0.0791,-0.0793,-0.0717,-0.0704,-0.072,-0.074,-0.0552,-0.0547,-0.0543,-0.0604,-0.0602,-0.06,0,0,0,0,0,-0.1021,-0.1007,-0.0889,-0.094,-0.0924,-0.09,-0.087,-0.0867,-0.0836,-0.0819,-0.0816,-0.0834,-0.0792,-0.0781,-0.0709,-0.0727,-0.0749,-0.0745,-0.0549,-0.0545,-0.0542,-0.0603,0,0,0,0,0,0,-0.1017,-0.0997,-0.0885,-0.088,-0.0969,-0.0905,-0.0896,-0.087,-0.0826,-0.0822,-0.0861,-0.0865,-0.079,-0.0782,-0.0774,-0.0731,-0.0757,-0.0752,-0.0749,-0.0546,-0.0543,-0.054,0,0,0,0,0,0,-0.1004,-0.0993,-0.0882,-0.0919,-0.0918,-0.091,-0.0902,-0.0843,-0.0826,-0.087,-0.0872,-0.0864,-0.0811,-0.0782,-0.0776,-0.0682,-0.0762,-0.0758,-0.0754,-0.0752,-0.0544,-0.0541,0,0,0,0,0,0,-0.0999,-0.0989,-0.092,-0.0919,-0.0918,-0.0854,-0.0857,-0.0782,-0.0846,-0.0872,-0.0853,-0.0857,-0.0811,-0.0804,-0.0777,-0.0686,-0.0683,-0.0762,-0.0759,-0.0757,-0.0755,0,0,0,0,0,0,0,-0.0995,-0.1069,-0.092,-0.0919,-0.0919,-0.083,-0.0828,-0.0826,-0.0847,-0.085,-0.0853,-0.0855,-0.0789,-0.0784,-0.0779,-0.0689,0,0,-0.0763,-0.076,0,0,0,0,0,0,0,0,-0.1072,-0.1069,-0.092,-0.0919,-0.0918,-0.0829,-0.0828,-0.0827,-0.0847,-0.085,-0.0852,-0.0854,-0.0788,-0.0784,-0.078,0,0,0,0,0,0,0,0,0,0,0,0,0,0,0,-0.092,-0.0919,0,-0.0829,-0.0828,-0.0827,-0.0848,-0.085,-0.0852,-0.0853,-0.0787,-0.0783,-0.078,0,0,0,0,0,0,0,0,0,0,0,0,0,0,0,0,0,0,0,0,0,0,0,0,0,0,0,0,0,0,0,0,0,0,0,0,0,0,0,0,0,0,0,0,0,0,0,0,0,0,0,0,0,0,0,0,0,0,0,0,0,0,0,0,0,0,0,0,0]}]],[[{"header":{"parameterUnit":"kt","parameterCategory":2,"dx":1,"dy":1,"la1":30.253999710083008,"la2":30.299108505249023,"lo1":-89.0895004272461,"lo2":-89.04439544677734,"nx":28,"ny":28,"refTime":"2022-10-25T21:00:00:Z","depth":"2","parameterNumber":2,"parameterNumberName":"U-component_of_CURRENTS"},"data":[-0.1583,-0.1525,-0.1517,-0.1408,-0.1392,-0.1289,-0.125,-0.1174,-0.1114,-0.097,-0.086,-0.0851,-0.0819,-0.0538,-0.0444,-0.0285,-0.0499,-0.0253,-0.0717,-0.0881,-0.0928,-0.1036,-0.0974,0,0,0,0,0,-0.1641,-0.1628,-0.162,-0.1602,-0.1564,-0.1614,-0.1608,-0.1542,-0.1455,-0.1419,-0.1336,-0.1102,-0.0889,-0.0861,-0.0607,-0.0539,-0.0601,-0.0532,-0.0628,-0.0679,-0.0726,-0.0652,-0.0214,-0.0213,-0.0212,-0.0211,0,0,-0.1742,-0.1732,-0.1734,-0.1732,-0.1749,-0.1737,-0.1705,-0.1736,-0.1719,-0.1679,-0.1723,-0.1576,-0.1529,-0.1191,-0.1081,-0.0997,-0.1142,-0.1111,-0.1136,-0.1165,-0.1106,-0.1037,-0.0793,-0.0795,-0.0797,-0.0799,-0.0801,0,-0.1807,-0.1823,-0.1834,-0.1841,-0.1851,-0.1879,-0.1905,-0.1917,-0.2,-0.2006,-0.1977,-0.193,-0.1812,-0.1599,-0.1466,-0.141,-0.1587,-0.1445,-0.1863,-0.1511,-0.145,-0.1448,-0.1476,-0.1296,-0.1301,-0.1305,-0.1308,-0.1311,-0.1871,-0.1874,-0.1926,-0.1929,-0.1947,-0.1979,-0.1997,-0.2082,-0.2101,-0.2169,-0.2162,-0.2149,-0.2089,-0.199,-0.1895,-0.1797,-0.1946,-0.1581,-0.1583,-0.1923,-0.1917,-0.1928,-0.1938,-0.137,-0.1362,-0.1356,-0.1351,0,-0.1895,-0.1935,-0.1959,-0.2017,-0.2033,-0.2045,-0.2109,-0.2129,-0.2196,-0.222,-0.2233,-0.2293,-0.2252,-0.2266,-0.2251,-0.2198,-0.2138,-0.2069,-0.187,-0.1825,-0.197,-0.1972,-0.186,-0.1854,-0.1848,-0.1843,-0.1839,0,-0.1949,-0.1964,-0.2021,-0.2027,-0.2057,-0.2112,-0.2146,-0.2193,-0.2249,-0.2271,-0.2336,-0.2339,-0.2393,-0.2377,-0.2364,-0.2247,-0.2341,-0.217,-0.215,-0.201,-0.1982,-0.2384,-0.2388,-0.2361,-0.2362,-0.2362,-0.2363,0,-0.1973,-0.2025,-0.2045,-0.2062,-0.2132,-0.215,-0.2183,-0.2246,-0.2275,-0.233,-0.2348,-0.2392,-0.2395,-0.2398,-0.2372,-0.2394,-0.235,-0.2387,-0.2198,-0.2185,-0.2038,-0.2011,-0.2363,-0.2363,-0.2363,-0.2364,-0.2364,0,-0.2019,-0.2042,-0.2068,-0.213,-0.2142,-0.2163,-0.2221,-0.2253,-0.2311,-0.2334,-0.2364,-0.2383,-0.241,-0.2399,-0.2406,-0.2415,-0.2388,-0.2382,-0.238,-0.2239,-0.2227,-0.1989,-0.1887,-0.2339,-0.2339,-0.2339,-0.2339,0,-0.2036,-0.2063,-0.2097,-0.2126,-0.2144,-0.2186,-0.2223,-0.2262,-0.2288,-0.232,-0.2345,-0.2372,-0.2374,-0.2384,-0.2395,-0.2406,-0.2392,-0.2408,-0.2405,-0.2404,-0.2237,-0.2182,-0.1999,-0.1907,-0.2343,-0.2342,-0.2342,0,-0.205,-0.2101,-0.2101,-0.2126,-0.2167,-0.2177,-0.221,-0.2252,-0.2282,-0.2293,-0.2328,-0.2356,-0.2361,-0.2391,-0.2412,-0.2423,-0.2393,-0.2424,-0.2426,-0.2378,-0.2381,-0.2208,-0.2189,-0.2414,-0.2415,-0.2415,-0.2345,0,-0.212,-0.2127,-0.212,-0.2159,-0.2172,-0.2174,-0.2218,-0.2228,-0.2248,-0.2278,-0.2302,-0.2325,-0.237,-0.2374,-0.2396,-0.2417,-0.2405,-0.2428,-0.2445,-0.2444,-0.2412,-0.2409,-0.2448,-0.2448,-0.2449,-0.245,0,0,-0.2138,-0.2146,-0.2158,-0.2172,-0.2189,-0.2213,-0.2228,-0.2246,-0.2277,-0.2295,-0.2293,-0.235,-0.2367,-0.2418,-0.2422,-0.2427,-0.2421,-0.244,-0.2449,-0.2448,-0.2448,-0.2417,-0.2415,-0.2451,-0.2451,-0.2451,-0.2452,0,-0.2171,-0.2165,-0.2163,-0.2179,-0.2202,-0.2228,-0.2227,-0.2256,-0.2273,-0.229,-0.2327,-0.2342,-0.2372,-0.241,-0.2435,-0.2433,-0.2434,-0.2439,-0.2444,-0.2454,-0.2452,-0.2452,-0.2421,-0.2418,-0.2453,-0.2453,-0.2453,0,-0.221,-0.2227,-0.2222,-0.2236,-0.2249,-0.2268,-0.2291,-0.229,-0.2314,-0.2343,-0.2364,-0.2375,-0.242,-0.2434,-0.2441,-0.2457,-0.2455,-0.2464,-0.2462,-0.247,-0.2481,-0.248,-0.2479,-0.2489,-0.2489,-0.2489,0,0,-0.2239,-0.2233,-0.2267,-0.2247,-0.2254,-0.2287,-0.2291,-0.2313,-0.2337,-0.2344,-0.2367,-0.2399,-0.2422,-0.2437,-0.2449,-0.2458,-0.2462,-0.2465,-0.2463,-0.2462,-0.2468,-0.248,-0.2479,-0.2488,-0.2488,-0.2488,0,0,-0.2255,-0.2288,-0.2304,-0.2285,-0.2302,-0.2335,-0.2324,-0.2349,-0.2364,-0.2368,-0.2405,-0.2412,-0.2416,-0.2441,-0.243,-0.2462,-0.2474,-0.2476,-0.2437,-0.2435,-0.2434,-0.2437,-0.2453,0,0,0,0,0,-0.2311,-0.2284,-0.2299,-0.2301,-0.2318,-0.2326,-0.2329,-0.2359,-0.2378,-0.2368,-0.24,-0.2411,-0.2455,-0.2445,-0.2446,-0.2443,-0.2479,-0.2481,-0.2482,-0.2433,-0.2431,-0.243,0,0,0,0,0,0,-0.2312,-0.2314,-0.23,-0.2331,-0.2336,-0.2327,-0.2367,-0.2374,-0.238,-0.2385,-0.2407,-0.2412,-0.2435,-0.2446,-0.2446,-0.2444,-0.2453,-0.248,-0.2481,-0.2482,-0.2433,-0.2431,-0.243,0,0,0,0,0,-0.2313,-0.2315,-0.2333,-0.2332,-0.2336,-0.2372,-0.2368,-0.2374,-0.2376,-0.2409,-0.2415,-0.2399,-0.2434,-0.2437,-0.2446,-0.2443,-0.2453,-0.2453,-0.2481,-0.2482,-0.2483,-0.2432,0,0,0,0,0,0,-0.2314,-0.2318,-0.2335,-0.2338,-0.2343,-0.2373,-0.2377,-0.2374,-0.24,-0.2406,-0.2403,-0.2406,-0.2433,-0.2435,-0.2437,-0.2443,-0.2452,-0.2453,-0.2453,-0.2482,-0.2482,-0.2483,0,0,0,0,0,0,-0.2318,-0.232,-0.2336,-0.2348,-0.2352,-0.2373,-0.2377,-0.2374,-0.24,-0.2392,-0.2396,-0.2404,-0.2431,-0.2434,-0.2435,-0.243,-0.2452,-0.2452,-0.2452,-0.2453,-0.2482,-0.2483,0,0,0,0,0,0,-0.232,-0.2322,-0.2347,-0.2351,-0.2355,-0.2388,-0.2371,-0.2386,-0.2414,-0.239,-0.2417,-0.2419,-0.243,-0.2432,-0.2434,-0.2428,-0.2429,-0.2452,-0.2452,-0.2452,-0.2452,0,0,0,0,0,0,0,-0.2321,-0.23,-0.232,-0.2353,-0.2356,-0.2365,-0.2366,-0.2366,-0.2414,-0.2415,-0.2417,-0.2418,-0.2452,-0.2452,-0.2452,-0.2426,0,0,-0.2452,-0.2452,0,0,0,0,0,0,0,0,-0.23,-0.23,-0.232,-0.2321,-0.2322,-0.2365,-0.2366,-0.2366,-0.2414,-0.2415,-0.2416,-0.2417,-0.2452,-0.2452,-0.2452,0,0,0,0,0,0,0,0,0,0,0,0,0,0,0,-0.2321,-0.2321,0,-0.2365,-0.2366,-0.2366,-0.2414,-0.2415,-0.2416,-0.2417,-0.2452,-0.2452,-0.2452,0,0,0,0,0,0,0,0,0,0,0,0,0,0,0,0,0,0,0,0,0,0,0,0,0,0,0,0,0,0,0,0,0,0,0,0,0,0,0,0,0,0,0,0,0,0,0,0,0,0,0,0,0,0,0,0,0,0,0,0,0,0,0,0,0,0,0,0,0]}],[{"header":{"parameterUnit":"kt","parameterCategory":2,"dx":1,"dy":1,"la1":30.253999710083008,"la2":30.299108505249023,"lo1":-89.0895004272461,"lo2":-89.04439544677734,"nx":28,"ny":28,"refTime":"2022-10-25T21:00:00:Z","depth":"2","parameterNumber":3,"parameterNumberName":"V-component_of_CURRENTS"},"data":[-0.0708,-0.0772,-0.0813,-0.0917,-0.0968,-0.1014,-0.1023,-0.0961,-0.0848,-0.0675,-0.0479,-0.0304,-0.0087,0.0114,0.0247,0.0392,0.0371,0.0412,0.0336,0.0271,0.0261,0.0337,0.0295,0,0,0,0,0,-0.0694,-0.0746,-0.0815,-0.0896,-0.0958,-0.0982,-0.1025,-0.1002,-0.095,-0.082,-0.0689,-0.0419,-0.0164,0.0032,0.0296,0.0413,0.0403,0.0451,0.0417,0.0407,0.0399,0.0378,0.0494,0.0494,0.0495,0.0495,0,0,-0.0675,-0.0719,-0.0771,-0.084,-0.0902,-0.0962,-0.0986,-0.0989,-0.098,-0.0888,-0.0819,-0.0608,-0.0439,-0.0036,0.0116,0.0282,0.0266,0.0345,0.034,0.0334,0.0312,0.0297,0.0409,0.0408,0.0408,0.0408,0.0408,0,-0.0653,-0.0676,-0.0717,-0.0791,-0.0841,-0.09,-0.0936,-0.0956,-0.0945,-0.0912,-0.0826,-0.0737,-0.0497,-0.0251,-0.0005,0.0124,0.0183,0.0249,0.0169,0.0211,0.0194,0.0217,0.0206,0.029,0.0289,0.0288,0.0288,0.0287,-0.0617,-0.0646,-0.0708,-0.0744,-0.0761,-0.0811,-0.0846,-0.0849,-0.086,-0.0816,-0.0812,-0.0696,-0.059,-0.0322,-0.013,0.0079,0.0078,0.022,0.0221,0.0128,0.0153,0.0145,0.0137,0.0276,0.0278,0.0279,0.028,0,-0.0596,-0.0611,-0.0663,-0.0697,-0.0712,-0.0751,-0.0785,-0.0808,-0.0784,-0.0785,-0.0777,-0.0679,-0.0545,-0.0402,-0.022,-0.0116,0.0031,0.0091,0.0089,0.0121,0.0133,0.0127,0.0212,0.0213,0.0215,0.0216,0.0217,0,-0.0558,-0.0592,-0.0618,-0.064,-0.0692,-0.0689,-0.0726,-0.072,-0.0707,-0.0711,-0.0641,-0.0614,-0.0477,-0.0378,-0.0257,-0.0097,-0.0105,0.002,0.0054,0.0062,0.0065,0.0029,0.003,0.0016,0.0015,0.0014,0.0013,0,-0.0516,-0.0553,-0.0594,-0.0604,-0.0624,-0.0641,-0.0649,-0.0634,-0.064,-0.0603,-0.0595,-0.0521,-0.0479,-0.0375,-0.0241,-0.0241,-0.0096,-0.0077,0.0025,0.0028,0.01,0.0108,0.0013,0.0012,0.0012,0.0012,0.0012,0,-0.0476,-0.0497,-0.0542,-0.0572,-0.0578,-0.0593,-0.0605,-0.0608,-0.0573,-0.0553,-0.0515,-0.0467,-0.0412,-0.037,-0.0246,-0.0274,-0.0191,-0.0124,-0.0119,-0.0051,-0.0012,0.0078,0.0075,-0.0039,-0.004,-0.0041,-0.0041,0,-0.0438,-0.0477,-0.047,-0.0509,-0.0528,-0.0506,-0.0517,-0.0505,-0.0481,-0.0465,-0.041,-0.039,-0.0345,-0.033,-0.0287,-0.0208,-0.0167,-0.0209,-0.0052,-0.0048,-0.0029,-0.0048,-0.0029,0.0059,-0.0052,-0.0051,-0.005,0,-0.0405,-0.0416,-0.0421,-0.0436,-0.0427,-0.0433,-0.0439,-0.0429,-0.0431,-0.0396,-0.039,-0.0349,-0.0314,-0.0284,-0.024,-0.02,-0.0181,-0.0154,-0.0149,-0.0121,-0.0088,-0.0065,-0.0055,-0.0156,-0.0156,-0.0155,-0.0058,0,-0.0371,-0.0387,-0.0395,-0.0393,-0.0394,-0.0401,-0.0377,-0.0374,-0.0351,-0.0325,-0.0308,-0.0256,-0.0213,-0.0205,-0.0168,-0.0156,-0.0126,-0.0101,-0.0053,-0.0085,-0.0037,-0.0031,-0.0074,-0.0072,-0.007,-0.0069,0,0,-0.0335,-0.035,-0.0326,-0.0336,-0.0337,-0.0297,-0.0311,-0.0293,-0.0257,-0.0247,-0.0227,-0.0168,-0.0128,-0.0107,-0.0117,-0.0096,-0.0059,-0.0074,-0.0073,-0.0074,-0.0074,-0.0031,-0.0027,-0.0066,-0.0066,-0.0065,-0.0065,0,-0.0312,-0.0313,-0.0323,-0.0316,-0.0298,-0.0277,-0.028,-0.0246,-0.023,-0.0218,-0.0173,-0.015,-0.0103,-0.0068,-0.0044,-0.0076,-0.0014,-0.0068,-0.0101,-0.0061,-0.0064,-0.0066,-0.0025,-0.0023,-0.0061,-0.0061,-0.0061,0,-0.0278,-0.0267,-0.027,-0.0262,-0.0242,-0.0243,-0.02,-0.0193,-0.0193,-0.0123,-0.0112,-0.008,-0.0024,-0.0013,-0.0003,0.0025,0.004,0.0029,0.0022,0.0031,0.0076,0.0072,0.0068,0.0116,0.0117,0.0117,0,0,-0.0258,-0.0263,-0.0238,-0.0253,-0.0247,-0.0209,-0.02,-0.0177,-0.0143,-0.0129,-0.0089,-0.0045,-0.0019,0.0004,0.0033,0.0047,0.0093,0.0046,0.0037,0.003,0.0035,0.0078,0.0074,0.0117,0.0117,0.0117,0,0,-0.024,-0.0215,-0.0205,-0.0223,-0.0205,-0.0161,-0.0163,-0.014,-0.0111,-0.0103,-0.0044,-0.003,-0.0021,0.0024,0.0025,0.0049,0.0089,0.009,0.001,0.0001,-0.0007,-0.0011,0.008,0,0,0,0,0,-0.0196,-0.022,-0.0212,-0.0211,-0.0187,-0.0172,-0.0166,-0.0129,-0.0109,-0.0113,-0.007,-0.0033,0.0039,0.0041,0.0052,0.0035,0.0125,0.0124,0.0122,0.0023,0.0012,0.0003,0,0,0,0,0,0,-0.0195,-0.0195,-0.0211,-0.0172,-0.0166,-0.0171,-0.0128,-0.0118,-0.0107,-0.0102,-0.0043,-0.0031,0.0012,0.004,0.0048,0.0031,0.0077,0.0124,0.0123,0.0122,0.0019,0.001,0.0003,0,0,0,0,0,-0.0194,-0.0194,-0.0171,-0.017,-0.0165,-0.0122,-0.0127,-0.0118,-0.0107,-0.0048,-0.0036,-0.0081,0.001,0.0021,0.0045,0.0026,0.0072,0.0075,0.0124,0.0123,0.0122,0.0015,0,0,0,0,0,0,-0.0194,-0.0178,-0.0169,-0.0165,-0.0163,-0.0121,-0.0115,-0.0119,-0.0053,-0.0043,-0.0083,-0.0079,0.0009,0.0017,0.0025,0.0021,0.0067,0.007,0.0072,0.0123,0.0122,0.0122,0,0,0,0,0,0,-0.0178,-0.0176,-0.0166,-0.0159,-0.0154,-0.0119,-0.0114,-0.0087,-0.0052,-0.0091,-0.0086,-0.0082,0.0003,0.0015,0.0021,0.0063,0.0064,0.0067,0.0069,0.007,0.0122,0.0122,0,0,0,0,0,0,-0.0176,-0.0174,-0.016,-0.0156,-0.0151,-0.0104,-0.0092,-0.0066,-0.0063,-0.0094,-0.006,-0.0059,-0.0,0.0007,0.0018,0.0056,0.0061,0.0064,0.0066,0.0067,0.0068,0,0,0,0,0,0,0,-0.0174,-0.0204,-0.0194,-0.0153,-0.0149,-0.013,-0.0129,-0.0127,-0.0062,-0.0061,-0.006,-0.0059,0.0047,0.005,0.0053,0.0051,0,0,0.0064,0.0065,0,0,0,0,0,0,0,0,-0.0204,-0.0204,-0.0193,-0.0193,-0.0192,-0.013,-0.0129,-0.0128,-0.0062,-0.0061,-0.006,-0.006,0.0048,0.005,0.0053,0,0,0,0,0,0,0,0,0,0,0,0,0,0,0,-0.0193,-0.0193,0,-0.0129,-0.0129,-0.0128,-0.0062,-0.0061,-0.0061,-0.006,0.0049,0.0051,0.0053,0,0,0,0,0,0,0,0,0,0,0,0,0,0,0,0,0,0,0,0,0,0,0,0,0,0,0,0,0,0,0,0,0,0,0,0,0,0,0,0,0,0,0,0,0,0,0,0,0,0,0,0,0,0,0,0,0,0,0,0,0,0,0,0,0,0,0,0,0]}]],[[{"header":{"parameterUnit":"kt","parameterCategory":2,"dx":1,"dy":1,"la1":30.253999710083008,"la2":30.299108505249023,"lo1":-89.0895004272461,"lo2":-89.04439544677734,"nx":28,"ny":28,"refTime":"2022-10-25T21:00:00:Z","depth":"4","parameterNumber":2,"parameterNumberName":"U-component_of_CURRENTS"},"data":[-0.1237,-0.1252,-0.1251,-0.1193,-0.118,-0.1211,-0.1248,-0.1309,-0.1257,-0.1344,-0.129,-0.1355,-0.1278,-0.1379,-0.1203,-0.1203,-0.1277,-0.125,-0.1245,-0.1452,-0.1475,-0.1495,-0.1476,0,0,0,0,0,-0.1288,-0.1274,-0.1297,-0.1317,-0.1366,-0.1389,-0.1464,-0.1514,-0.1596,-0.1484,-0.153,-0.1455,-0.135,-0.1354,-0.1239,-0.1377,-0.1416,-0.1239,-0.1412,-0.1466,-0.1491,-0.1465,0,0,0,0,0,0,-0.1357,-0.1366,-0.1414,-0.1444,-0.1499,-0.1494,-0.1545,-0.1535,-0.1559,-0.1634,-0.1591,-0.1586,-0.1634,-0.1516,-0.1474,-0.141,-0.14,-0.1378,-0.1406,-0.1431,-0.1392,-0.1315,-0.1074,0,0,0,0,0,-0.1412,-0.1463,-0.15,-0.1551,-0.1594,-0.1638,-0.1687,-0.1685,-0.1768,-0.1866,-0.178,-0.1732,-0.1667,-0.1637,-0.1577,-0.1548,-0.1744,-0.1645,-0.1659,-0.1707,-0.167,-0.1667,-0.1684,-0.1587,-0.159,-0.1592,-0.1593,0,-0.1484,-0.1503,-0.1609,-0.1633,-0.1676,-0.1738,-0.1772,-0.1868,-0.1886,-0.1952,-0.1939,-0.1936,-0.1953,-0.1776,-0.1833,-0.1767,-0.175,-0.171,-0.1762,-0.1711,-0.17,-0.1711,-0.172,-0.1614,-0.1612,-0.161,-0.1609,0,-0.1516,-0.1579,-0.1629,-0.1721,-0.1753,-0.1785,-0.1875,-0.1903,-0.1982,-0.2009,-0.2028,-0.2088,-0.2051,-0.208,-0.2072,-0.201,-0.1949,-0.1878,-0.208,-0.2073,-0.1756,-0.1757,-0.1647,-0.164,-0.1633,-0.1628,-0.1624,0,-0.1581,-0.1616,-0.1707,-0.1723,-0.1776,-0.184,-0.1897,-0.1954,-0.2022,-0.2045,-0.2125,-0.2127,-0.22,-0.2189,-0.2181,-0.206,-0.2164,-0.1976,-0.195,-0.218,-0.218,-0.2158,-0.2155,-0.2185,-0.2185,-0.2186,-0.2186,0,-0.1613,-0.1684,-0.1722,-0.1745,-0.1829,-0.1866,-0.1911,-0.1988,-0.2024,-0.2099,-0.2124,-0.2181,-0.2196,-0.2206,-0.2187,-0.2208,-0.2173,-0.2202,-0.1999,-0.1985,-0.216,-0.2157,-0.2187,-0.2187,-0.2187,-0.2188,-0.2188,0,-0.1661,-0.1693,-0.1737,-0.1811,-0.1827,-0.1864,-0.1939,-0.1982,-0.2054,-0.209,-0.2136,-0.2162,-0.2202,-0.2197,-0.2212,-0.2222,-0.2198,-0.2192,-0.219,-0.199,-0.1965,-0.2073,-0.214,-0.214,-0.214,-0.214,-0.214,0,-0.1676,-0.1715,-0.175,-0.1798,-0.1821,-0.1873,-0.192,-0.1971,-0.2015,-0.2064,-0.21,-0.2142,-0.2149,-0.217,-0.219,-0.2197,-0.2192,-0.2205,-0.216,-0.2157,-0.1954,-0.1969,-0.2216,-0.2142,-0.2142,-0.2142,-0.2142,0,-0.1678,-0.174,-0.1746,-0.1771,-0.1823,-0.1842,-0.1896,-0.1944,-0.1982,-0.2028,-0.207,-0.2119,-0.2133,-0.2145,-0.2163,-0.2178,-0.2189,-0.2167,-0.2166,-0.2102,-0.2185,-0.1994,-0.1975,-0.2213,-0.2213,-0.2214,-0.2143,0,-0.1705,-0.1737,-0.1748,-0.1781,-0.1808,-0.1832,-0.187,-0.1909,-0.1944,-0.1967,-0.2027,-0.2051,-0.2086,-0.2106,-0.2107,-0.2149,-0.2123,-0.2132,-0.208,-0.2144,-0.2106,-0.2105,-0.21,-0.2099,-0.2098,-0.2098,0,0,-0.1699,-0.172,-0.174,-0.1758,-0.178,-0.1811,-0.1832,-0.1859,-0.1904,-0.1928,-0.1929,-0.1999,-0.2004,-0.2047,-0.2074,-0.209,-0.2076,-0.205,-0.2128,-0.2132,-0.2135,-0.2101,-0.2101,-0.2096,-0.2096,-0.2096,-0.2095,0,-0.169,-0.1719,-0.1732,-0.1752,-0.1783,-0.1796,-0.1814,-0.1842,-0.1861,-0.191,-0.1916,-0.1953,-0.1981,-0.1988,-0.1995,-0.2076,-0.2016,-0.2088,-0.2109,-0.2122,-0.2126,-0.213,-0.2098,-0.2099,-0.2094,-0.2094,-0.2094,0,-0.1682,-0.1697,-0.1709,-0.1739,-0.1754,-0.1775,-0.1775,-0.1802,-0.1827,-0.1818,-0.1864,-0.1879,-0.1888,-0.1922,-0.194,-0.192,-0.1964,-0.1962,-0.1968,-0.1947,-0.1956,-0.1963,-0.1969,-0.1881,-0.188,-0.188,0,0,-0.1674,-0.1692,-0.1714,-0.1737,-0.1749,-0.1768,-0.1785,-0.1791,-0.1812,-0.1824,-0.183,-0.1848,-0.1866,-0.1876,-0.1883,-0.192,-0.1894,-0.1934,-0.1944,-0.1953,-0.1936,-0.1948,-0.1956,-0.1876,-0.1876,-0.1876,0,0,-0.1663,-0.1684,-0.1696,-0.1722,-0.1742,-0.1749,-0.1766,-0.1781,-0.1809,-0.1815,-0.18,-0.1799,-0.1838,-0.1834,-0.1795,-0.1854,-0.1817,-0.1825,-0.1839,-0.1852,-0.1862,-0.1834,-0.1723,0,0,0,0,0,-0.1664,-0.1683,-0.1694,-0.1701,-0.173,-0.1749,-0.1753,-0.1759,-0.177,-0.1781,-0.1804,-0.1758,-0.1815,-0.178,-0.1778,-0.179,-0.1833,-0.1841,-0.1848,-0.1876,-0.189,-0.1901,0,0,0,0,0,0,-0.1667,-0.1674,-0.1693,-0.1702,-0.1709,-0.1748,-0.1733,-0.1734,-0.1767,-0.1766,-0.176,-0.1757,-0.173,-0.1777,-0.1776,-0.1788,-0.1723,-0.1836,-0.1843,-0.1849,-0.1881,-0.1892,-0.1901,0,0,0,0,0,-0.1669,-0.1675,-0.1721,-0.1701,-0.1708,-0.1724,-0.1732,-0.1733,-0.1759,-0.1737,-0.1736,-0.1767,-0.1731,-0.173,-0.1776,-0.1789,-0.1723,-0.1723,-0.184,-0.1846,-0.185,-0.1886,0,0,0,0,0,0,-0.1671,-0.167,-0.1722,-0.1725,-0.1695,-0.1721,-0.1725,-0.1732,-0.1727,-0.1728,-0.1739,-0.1738,-0.1731,-0.1731,-0.173,-0.1792,-0.1723,-0.1723,-0.1723,-0.1844,-0.1848,-0.1852,0,0,0,0,0,0,-0.1668,-0.1672,-0.1723,-0.1715,-0.1717,-0.1719,-0.1722,-0.1725,-0.1726,-0.1728,-0.1728,-0.1738,-0.1727,-0.1731,-0.173,-0.1735,-0.1723,-0.1723,-0.1723,-0.1723,-0.1848,-0.1851,0,0,0,0,0,0,-0.167,-0.1673,-0.1714,-0.1715,-0.1717,-0.1743,-0.172,-0.1744,-0.1739,-0.1726,-0.1738,-0.1737,-0.1728,-0.1727,-0.1731,-0.1735,-0.1735,-0.1723,-0.1723,-0.1723,-0.1723,0,0,0,0,0,0,0,-0.1671,-0.1643,-0.1712,-0.1716,-0.1717,-0.175,-0.175,-0.1751,-0.1739,-0.1739,-0.1738,-0.1737,-0.1723,-0.1723,-0.1723,-0.1736,0,0,-0.1723,-0.1723,0,0,0,0,0,0,0,0,-0.1641,-0.1642,-0.1712,-0.1713,-0.1714,-0.175,-0.175,-0.1751,-0.1739,-0.1739,-0.1738,-0.1738,-0.1723,-0.1723,-0.1723,0,0,0,0,0,0,0,0,0,0,0,0,0,0,0,-0.1712,-0.1713,0,-0.175,-0.175,-0.1751,-0.1739,-0.1739,-0.1738,-0.1738,-0.1723,-0.1723,-0.1723,0,0,0,0,0,0,0,0,0,0,0,0,0,0,0,0,0,0,0,0,0,0,0,0,0,0,0,0,0,0,0,0,0,0,0,0,0,0,0,0,0,0,0,0,0,0,0,0,0,0,0,0,0,0,0,0,0,0,0,0,0,0,0,0,0,0,0,0,0]}],[{"header":{"parameterUnit":"kt","parameterCategory":2,"dx":1,"dy":1,"la1":30.253999710083008,"la2":30.299108505249023,"lo1":-89.0895004272461,"lo2":-89.04439544677734,"nx":28,"ny":28,"refTime":"2022-10-25T21:00:00:Z","depth":"4","parameterNumber":3,"parameterNumberName":"V-component_of_CURRENTS"},"data":[-0.0445,-0.0509,-0.0547,-0.0632,-0.068,-0.0751,-0.0778,-0.0778,-0.0725,-0.0699,-0.059,-0.0533,-0.0346,-0.0446,-0.0165,-0.0133,-0.0062,0.0069,0.0072,0.0169,0.0168,0.0166,0.0119,0,0,0,0,0,-0.0434,-0.0481,-0.0548,-0.0624,-0.0693,-0.0726,-0.0773,-0.0782,-0.078,-0.0719,-0.0686,-0.0572,-0.038,-0.03,-0.0173,-0.017,0.0001,-0.0019,0.0061,0.0168,0.0167,0.0121,0,0,0,0,0,0,-0.0423,-0.0464,-0.0522,-0.0589,-0.0662,-0.0713,-0.0737,-0.0733,-0.0739,-0.0696,-0.067,-0.0547,-0.0476,-0.0289,-0.0164,-0.0042,0.0002,0.0057,0.0061,0.0061,0.0009,-0.0035,0.0006,0,0,0,0,0,-0.0407,-0.0437,-0.0479,-0.0558,-0.0614,-0.0673,-0.0715,-0.0728,-0.073,-0.0727,-0.0647,-0.0545,-0.0434,-0.0279,-0.0147,-0.0009,0.0061,0.011,0.0111,0.012,0.0098,0.0121,0.0116,0.016,0.016,0.016,0.016,0,-0.0385,-0.0413,-0.0486,-0.0524,-0.0548,-0.0604,-0.0641,-0.0653,-0.0666,-0.0647,-0.0644,-0.0567,-0.0505,-0.029,-0.0174,0.0011,0.0046,0.0105,0.0114,0.0095,0.0119,0.0114,0.0109,0.0158,0.0158,0.0158,0.0158,0,-0.0373,-0.0395,-0.0447,-0.0491,-0.0511,-0.055,-0.0594,-0.0618,-0.0607,-0.0616,-0.0612,-0.0542,-0.0442,-0.0327,-0.0176,-0.0092,0.0027,0.0074,0.0014,0.004,0.0109,0.0105,0.0156,0.0156,0.0157,0.0157,0.0157,0,-0.0352,-0.0385,-0.0423,-0.0443,-0.0496,-0.05,-0.0542,-0.0541,-0.0539,-0.0548,-0.0495,-0.0478,-0.0366,-0.029,-0.0185,-0.0064,-0.0061,0.0035,0.0065,0.0029,0.0025,0.0088,0.0091,0.0055,0.0054,0.0054,0.0053,0,-0.0321,-0.0362,-0.0402,-0.0413,-0.044,-0.046,-0.0474,-0.0468,-0.0478,-0.0455,-0.0452,-0.0394,-0.0365,-0.0275,-0.0166,-0.016,-0.005,-0.0021,0.0048,0.0049,0.0086,0.009,0.0053,0.0052,0.0052,0.0052,0.0052,0,-0.0293,-0.0314,-0.0361,-0.039,-0.0397,-0.0418,-0.0434,-0.0443,-0.0422,-0.0407,-0.038,-0.0339,-0.0299,-0.026,-0.016,-0.0181,-0.0109,-0.0052,-0.0047,0.0005,0.0045,0.0082,0.0022,0.0021,0.002,0.002,0.0019,0,-0.0257,-0.0298,-0.0294,-0.0335,-0.0353,-0.0339,-0.0355,-0.035,-0.0334,-0.0327,-0.0283,-0.0269,-0.0229,-0.0217,-0.0183,-0.0114,-0.0083,-0.0113,0.0034,0.0038,0.0043,-0.0008,-0.0063,0.0011,0.0012,0.0013,0.0013,0,-0.0223,-0.0239,-0.0244,-0.0253,-0.0253,-0.0265,-0.028,-0.0277,-0.0278,-0.026,-0.0255,-0.0229,-0.0197,-0.0165,-0.0124,-0.0092,-0.0091,-0.0044,-0.0039,-0.0014,-0.0016,-0.0017,-0.0012,-0.0065,-0.0064,-0.0064,0.0008,0,-0.0177,-0.0198,-0.0214,-0.0209,-0.0218,-0.0235,-0.0216,-0.0222,-0.02,-0.0174,-0.017,-0.0126,-0.0085,-0.0082,-0.0044,-0.0041,-0.0011,0.002,0.0086,0.0034,0.0072,0.0076,0.0063,0.0065,0.0067,0.0069,0,0,-0.0131,-0.015,-0.0132,-0.0145,-0.0149,-0.0113,-0.0131,-0.012,-0.0093,-0.0085,-0.0063,-0.0016,0.0024,0.0041,0.0025,0.0038,0.0072,0.0075,0.0052,0.005,0.0048,0.0082,0.0083,0.0072,0.0073,0.0073,0.0074,0,-0.0099,-0.0107,-0.0122,-0.012,-0.0109,-0.0089,-0.0096,-0.0069,-0.005,-0.0053,0.0005,0.002,0.0057,0.0097,0.0123,0.0062,0.0139,0.007,0.0032,0.0067,0.0062,0.0058,0.0089,0.0089,0.0079,0.0078,0.0078,0,-0.0048,-0.0039,-0.0046,-0.0051,-0.0035,-0.0041,0.001,0.0005,0.0005,0.0084,0.0091,0.0119,0.0177,0.0177,0.0183,0.0219,0.0211,0.0207,0.0198,0.0214,0.0254,0.0247,0.0241,0.032,0.0321,0.0321,0,0,-0.0018,-0.003,-0.001,-0.004,-0.0038,0.0001,0.0004,0.0033,0.0063,0.0079,0.0122,0.0169,0.0192,0.0215,0.0238,0.0235,0.0284,0.0232,0.0221,0.0211,0.022,0.0258,0.0252,0.0323,0.0323,0.0323,0,0,0.0005,0.0027,0.0045,0.0009,0.002,0.0058,0.0047,0.0078,0.0104,0.0118,0.019,0.0205,0.0203,0.025,0.0261,0.0268,0.0321,0.0319,0.0232,0.0219,0.0208,0.0213,0.0343,0,0,0,0,0,0.0061,0.0021,0.0035,0.0033,0.0044,0.0042,0.0046,0.0093,0.0128,0.0117,0.0165,0.0219,0.0275,0.0286,0.0295,0.0275,0.0341,0.0338,0.0335,0.0222,0.0207,0.0195,0,0,0,0,0,0,0.0061,0.0058,0.0037,0.0069,0.0072,0.0044,0.011,0.0123,0.0131,0.014,0.0207,0.0221,0.0273,0.0287,0.0293,0.0274,0.0341,0.034,0.0337,0.0335,0.0217,0.0205,0.0195,0,0,0,0,0,0.006,0.0058,0.006,0.0071,0.0073,0.0122,0.0113,0.0124,0.0136,0.0201,0.0216,0.0171,0.027,0.0281,0.0291,0.0269,0.0337,0.0339,0.0338,0.0336,0.0334,0.0211,0,0,0,0,0,0,0.006,0.0076,0.0062,0.0065,0.0091,0.0126,0.0132,0.0124,0.0199,0.0211,0.0169,0.0176,0.0268,0.0277,0.0284,0.0264,0.0334,0.0336,0.0337,0.0337,0.0335,0.0333,0,0,0,0,0,0,0.0078,0.0078,0.0064,0.0087,0.0093,0.0129,0.0134,0.0149,0.02,0.0165,0.0171,0.0172,0.0266,0.0273,0.028,0.0299,0.0331,0.0333,0.0335,0.0336,0.0335,0.0334,0,0,0,0,0,0,0.0079,0.008,0.0087,0.0092,0.0097,0.0137,0.0145,0.0161,0.0193,0.0162,0.02,0.0203,0.0262,0.0269,0.0276,0.0292,0.0297,0.0331,0.0333,0.0334,0.0334,0,0,0,0,0,0,0,0.008,0.0062,0.004,0.0095,0.0101,0.0092,0.0093,0.0094,0.0194,0.0197,0.0199,0.0202,0.0319,0.0321,0.0324,0.0287,0,0,0.0331,0.0332,0,0,0,0,0,0,0,0,0.0063,0.0062,0.004,0.0041,0.0041,0.0092,0.0093,0.0094,0.0195,0.0197,0.0199,0.0201,0.032,0.0322,0.0323,0,0,0,0,0,0,0,0,0,0,0,0,0,0,0,0.004,0.0041,0,0.0092,0.0093,0.0094,0.0195,0.0197,0.0198,0.02,0.032,0.0322,0.0323,0,0,0,0,0,0,0,0,0,0,0,0,0,0,0,0,0,0,0,0,0,0,0,0,0,0,0,0,0,0,0,0,0,0,0,0,0,0,0,0,0,0,0,0,0,0,0,0,0,0,0,0,0,0,0,0,0,0,0,0,0,0,0,0,0,0,0,0,0]}]]]